STARLINK-3236 (49750 NORAD) Tracking and Keplerian Element Data

This shows tracking and keplerian element data for the satellite.

Feedback or suggestion? Click here.




ElementValue
Catalog49750
NameSTARLINK-3236
Epoch Orbit130
Epoch Day140.58334491
Epoch Year2022
RAAN265.0628
Inclination53.218
Eccentricity0.0002463
Argument of Perigee33.0811
Mean Anonmoly203.4391
Mean Motion15.08825527
Decay Rate-2.5E-06
L11 49750U 21115AC 22140.58334491 -.00000250 00000+0 24422-5 0 9997
L22 49750 53.2180 265.0628 0002463 33.0811 203.4391 15.08825527 1305

Live tracking and technical data element details for STARLINK-3236 (NORAD 49750). STARLINK-3236 can be tracked NOW for your location showing map with azimuth and elevation plus other details from your city location.

Track the satellite on the map from your city or location and see movement details for azimuth, elevation, latitude, longitude, range, height, and movement on the map or in text.







IsCatalogInMostPopularTable: catalog: 49750, numindb: 22
Update: records affected: 1



GetName: 49750 STARLINK-3236

Hit Count: updated at: Mon, 23 May 2022 21:05:50 GMT